TimeCST,TemperatureF,Dew PointF,Humidity,Sea Level PressureIn,VisibilityMPH,Wind Direction,Wind SpeedMPH,Gust SpeedMPH,PrecipitationIn,Events,Conditions,WindDirDegrees,DateUTC
12:51 AM,28.9,21.9,75,30.41,10.0,WNW,8.1,-,N/A,,Clear,290,2013-01-04 06:51:00
1:51 AM,26.1,19.9,78,30.41,10.0,West,6.9,-,N/A,,Clear,270,2013-01-04 07:51:00
2:51 AM,26.1,19.0,75,30.42,10.0,West,5.8,-,N/A,,Clear,260,2013-01-04 08:51:00
3:51 AM,25.0,18.0,75,30.43,10.0,West,5.8,-,N/A,,Scattered Clouds,280,2013-01-04 09:51:00
4:51 AM,28.0,21.0,75,30.43,10.0,West,6.9,-,N/A,,Mostly Cloudy,270,2013-01-04 10:51:00
5:51 AM,26.1,19.0,75,30.43,10.0,West,4.6,-,N/A,,Mostly Cloudy,270,2013-01-04 11:51:00
6:51 AM,25.0,18.0,75,30.44,10.0,West,5.8,-,N/A,,Scattered Clouds,260,2013-01-04 12:51:00
7:51 AM,25.0,18.0,75,30.45,9.0,West,4.6,-,N/A,,Scattered Clouds,260,2013-01-04 13:51:00
8:51 AM,30.0,21.0,69,30.45,9.0,WSW,6.9,-,N/A,,Partly Cloudy,250,2013-01-04 14:51:00
9:51 AM,33.1,21.0,61,30.46,10.0,WSW,9.2,-,N/A,,Clear,250,2013-01-04 15:51:00
10:51 AM,36.0,21.9,57,30.45,10.0,West,12.7,-,N/A,,Clear,260,2013-01-04 16:51:00
11:51 AM,37.0,21.9,54,30.43,10.0,WSW,11.5,-,N/A,,Partly Cloudy,250,2013-01-04 17:51:00
12:51 PM,39.0,21.9,50,30.40,10.0,West,11.5,-,N/A,,Clear,260,2013-01-04 18:51:00
1:51 PM,39.9,21.0,47,30.40,10.0,SW,12.7,-,N/A,,Clear,230,2013-01-04 19:51:00
2:51 PM,39.9,19.9,45,30.39,10.0,WSW,15.0,-,N/A,,Clear,240,2013-01-04 20:51:00
3:51 PM,41.0,19.0,41,30.38,10.0,SW,9.2,-,N/A,,Clear,230,2013-01-04 21:51:00
4:51 PM,37.9,18.0,45,30.36,10.0,WSW,4.6,-,N/A,,Clear,240,2013-01-04 22:51:00
5:51 PM,36.0,19.0,50,30.37,10.0,SSW,4.6,-,N/A,,Clear,200,2013-01-04 23:51:00
6:51 PM,36.0,18.0,48,30.38,10.0,Calm,Calm,-,N/A,,Clear,0,2013-01-05 00:51:00
7:51 PM,35.1,19.0,52,30.38,10.0,Calm,Calm,-,N/A,,Clear,0,2013-01-05 01:51:00
8:51 PM,33.1,19.0,56,30.36,10.0,Calm,Calm,-,N/A,,Clear,0,2013-01-05 02:51:00
9:51 PM,30.9,19.0,61,30.36,10.0,Calm,Calm,-,N/A,,Clear,0,2013-01-05 03:51:00
10:51 PM,32.0,19.0,59,30.35,10.0,SSW,3.5,-,N/A,,Clear,210,2013-01-05 04:51:00
11:51 PM,32.0,19.0,59,30.34,10.0,SW,9.2,-,N/A,,Clear,230,2013-01-05 05:51:00